Weather in Sept-Iles

Canada     50°12′40″N   66°22′32″W
temp.,
°C
wind,
m/s
gust,
m/s
humid.,
%
clouds,
%
prec.,
mm/h
press.,
hPa
HPBL,
m
9 may, sun
sun923:00+6nne41080100 0.0 1012489
02:00+5n51184100 0.0 1009550
05:00+5n61176100 0.0 1008721
08:00+6n71267100 0.0 1007709
11:00+7n61160100 0.1 1006762
14:00+8n6957100 0.1 1006975
17:00+8n6958100 0.0 1007885
20:00+6n486771 0.0 1008375
10 may, mon
mon1023:00+4nw347883 0.0 100992
02:00+3nnw487725 0.0 1009274
05:00+3nnw367385 0.0 1010257
08:00+5nne455745 0.0 1011581
11:00+8s135098 0.0 10101190
14:00+7s345798 0.0 1010977
17:00+7s2459100 0.0 1011713
20:00+5ese1172100 0.0 101223
11 may, tue
tue1123:00+5n237164 0.0 101335
02:00+2nnw338091 0.0 101351
05:00+1n34855 0.0 101388
08:00+6n236246 0.0 1013540
11:00+8s125491 0.0 10121196
14:00+7sse136187 0.1 1012964
17:00+8ne125898 0.1 1012929
20:00+6n2370100 0.1 101254
12 may, wed
wed1223:00+5nne368398 0.0 1012288
02:00+5ne3686100 0.6 1012461
05:00+4n3583100 0.1 1013221
08:00+5nne4662100 0.1 1013672
11:00+8n4645100 0.0 10131220
14:00+10n2539100 0.0 10121673
17:00+8ne1458100 0.0 10131196
20:00+7nnw246186 0.1 1014104
13 may, thu
thu1323:00+5nw337060 0.0 101447
02:00+3nw33770 0.0 101434
05:00+3nw338062 0.0 101349
08:00+8w245699 0.0 1012394
11:00+11w3551100 0.0 10101324
14:00+12nw695053 0.0 10101180
17:00+11nnw711519 0.0 10101101
20:00+8nw611550 0.0 1012676